Location: ???? ??
(36.0534°N, 43.5630°E)
Time: 20:40:03
(UTC+00:00)

ISS - Pass Details

Date: 18 September 2019
Orbit: 411 x 421 km, 51.6° (Epoch: 21 October)

Event Time Altitude Azimuth Distance (km) Brightness Sun altitude
Rises 16:08:03 0° 210° (SSW) 2,327 0.3 -12.6°
Reaches altitude 10° 16:10:13 10° 201° (SSW) 1,469 -0.9 -13.0°
Maximum altitude 16:13:16 36° 133° (SE) 670 -3.2 -13.6°
Enters shadow 16:14:23 27° 91° (E) 821 -2.9 -13.9°
